Home > Weather > Clearwater > Past weeks

Flag for USA Past Weather in Clearwater, Florida, USA — Yesterday and Last 2 Weeks

Now
92 °F

Sunny.


Feels Like: 104 °F
Forecast: 80 / 90 °F
Wind: 6 mph from Northeast

Location: St. Petersburg / Clearwater International Airport

Current Time: Jun 26, 2016 at 1:22:13 PM

Latest Report: Jun 26, 2016 at 12:53 PM


Visibility: 10 mi

Pressure: 30.09 "Hg

Humidity: 60%

Dew Point: 76 °F

Location of ClearwaterLocation

Past Weather in Clearwater — Graph

°F

Clearwater Temperature Yesterday

Maximum temperature yesterday: 92 °F (at 2:53 PM)
Minimum temperature yesterday: 78 °F (at 5:53 AM)
Average temperature yesterday: 83 °F

High & Low Weather Summary for the Past Weeks

 TemperatureHumidityPressure
High93 °F (Jun 22, 4:53 PM)94% (Jun 12, 3:53 AM)30.20 "Hg (Jun 12, 3:53 AM)
Low72 °F (Jun 21, 6:53 AM)40% (Jun 22, 4:53 PM)29.90 "Hg (Jun 17, 7:53 PM)
Average83 °F71%30.06 "Hg
* Reported Jun 11 11:53 AM — Jun 26 11:53 AM, Clearwater, Weather by CustomWeather, © 2016

Note: Actual official high and low records may vary slightly from our data, if they occured in-between our weather recording intervals... More about our weather records

Advertising

Clearwater Weather History for the Previous 24 Hours

Scroll right to see more
 ConditionsComfort  
Time TempWeatherWind HumidityBarometerVisibility
11:53 AM
Sun, Jun 26
89 °FSunny.5 mph63%30.11 "Hg10 mi
10:53 AM88 °FSunny.5 mph65%30.12 "Hg10 mi
9:53 AM87 °FSunny.3 mph67%30.12 "Hg10 mi
8:53 AM84 °FPassing clouds.3 mph74%30.11 "Hg10 mi
7:53 AM83 °FPassing clouds.6 mph77%30.11 "Hg10 mi
6:53 AM80 °FClear.3 mph85%30.09 "Hg10 mi
5:53 AM78 °FClear.No wind87%30.06 "Hg10 mi
4:53 AM78 °FPassing clouds.No wind87%30.07 "Hg10 mi
3:53 AM78 °FClear.No wind87%30.06 "Hg10 mi
2:53 AM79 °FClear.No wind88%30.06 "Hg10 mi
1:53 AM79 °FClear.3 mph84%30.07 "Hg10 mi
12:53 AM80 °FClear.No wind81%30.09 "Hg10 mi
11:53 PM
Sat, Jun 25
80 °FClear.No wind87%30.09 "Hg10 mi
10:53 PM80 °FClear.3 mph87%30.09 "Hg10 mi
9:53 PM81 °FClear.No wind82%30.08 "Hg10 mi
8:53 PM82 °FSunny.5 mph79%30.06 "Hg10 mi
7:53 PM83 °FSunny.6 mph74%30.05 "Hg10 mi
6:53 PM82 °FSunny.3 mph72%30.04 "Hg10 mi
5:53 PM82 °FScattered clouds.7 mph79%30.05 "Hg10 mi
4:53 PM81 °FThunderstorms. Broken clouds.10 mph74%30.07 "Hg10 mi
3:53 PM86 °FThunderstorms. Partly sunny.8 mph65%30.06 "Hg10 mi
2:53 PM92 °FSunny.7 mph60%30.08 "Hg10 mi
1:53 PM90 °FPassing clouds.3 mph61%30.09 "Hg10 mi
Weather by CustomWeather, © 2016

See weather overviewHow to use our weather pages